Theta_e
291 288 287 285 288 289 289 287 287 287 286 285 283 281 282 282 282 284 286 289 288 289 287 287 287 286 289 291 293 293 290 289 289 290 292 292 292 293 293 293 295 295 296 297 296 296 297 298 298 298 301 304 306 307 311 314 314 316 318 317 317 318 317 319 318 317 319 319 317 315 319 321 323 323 324 324 325 327 330 330 330 330 331 331 330 329
290 287 286 288 289 290 288 286 286 286 285 287 284 284 283 283 286 287 290 289 288 289 283 282 284 286 287 289 290 291 287 289 290 291 291 292 292 293 292 293 294 296 295 295 295 294 293 296 296 296 299 302 305 307 309 312 315 316 316 316 317 315 316 318 320 319 319 320 321 321 320 319 317 319 321 323 323 324 323 325 327 328 329 329 328 327
287 286 289 289 287 286 285 285 285 286 285 283 285 282 283 284 283 285 287 287 288 289 285 281 286 289 290 291 292 290 292 292 291 291 292 291 291 292 292 292 294 294 295 294 295 293 293 293 294 295 297 302 306 306 308 311 311 311 314 315 315 315 316 317 318 318 318 317 315 316 311 317 308 308 316 318 318 317 320 320 322 324 327 328 328 328
286 286 289 287 287 287 285 285 286 285 283 282 282 284 282 282 285 285 285 287 288 287 286 285 286 289 290 287 290 292 290 289 289 289 290 291 292 292 293 294 294 293 294 294 294 295 293 291 292 293 297 300 301 301 303 308 311 312 313 314 314 314 315 316 315 315 314 312 309 306 303 307 310 307 306 314 313 315 316 318 318 320 323 325 326 327
285 288 287 288 286 289 287 286 287 286 286 283 281 281 283 286 286 284 287 285 282 286 283 284 284 286 281 281 284 285 283 286 287 287 289 291 291 293 293 292 292 293 293 293 293 293 291 291 294 296 297 296 300 303 305 307 310 313 313 314 314 314 313 313 311 312 309 307 304 301 302 302 305 305 305 307 310 314 316 314 316 318 318 321 324 326
286 287 286 288 285 286 287 285 286 287 283 284 283 284 285 283 286 286 283 284 278 281 281 283 279 276 279 279 281 284 284 288 285 286 289 289 289 288 291 292 292 291 290 292 294 295 292 292 292 293 294 296 298 301 304 305 307 307 309 310 309 308 308 310 309 310 309 311 311 306 308 306 303 306 304 309 311 311 313 316 316 315 315 317 319 321
286 289 288 289 288 286 286 285 285 287 283 284 287 285 284 284 285 284 286 282 280 280 283 282 279 278 279 283 286 284 283 286 288 287 289 289 289 287 289 291 290 290 292 290 291 292 293 293 293 295 294 295 298 299 301 301 302 303 305 306 308 308 307 307 307 308 308 308 309 310 311 312 311 311 308 304 304 308 309 313 313 314 312 314 316 317
289 288 286 287 288 287 286 286 287 286 285 285 283 283 285 286 286 284 282 284 280 279 281 279 275 277 280 283 282 282 283 286 287 288 288 288 287 287 287 288 288 289 289 292 293 292 292 292 294 297 296 295 297 298 298 299 300 303 303 302 304 303 305 304 305 306 308 310 308 308 308 309 309 309 309 304 304 302 302 308 310 311 312 310 311 314
289 288 286 286 284 284 287 285 287 285 284 283 284 285 284 285 283 280 280 279 280 281 280 277 283 281 277 281 282 281 284 282 283 285 287 289 289 287 286 286 287 287 288 290 292 292 292 294 293 294 294 295 296 297 297 298 299 300 301 300 301 302 302 302 304 306 306 308 308 308 308 307 306 304 302 297 299 303 300 303 304 309 310 310 309 310
290 289 289 289 287 285 285 286 284 288 289 288 284 285 283 283 282 279 279 282 277 278 275 279 281 277 278 279 280 279 283 281 282 287 288 289 290 290 290 289 287 287 289 289 291 292 293 292 292 292 292 295 295 295 296 297 298 298 298 299 300 300 301 301 302 304 305 305 305 306 305 306 305 300 297 297 300 300 298 303 302 304 307 309 308 308
290 291 291 287 287 285 286 286 285 287 289 288 286 287 283 280 280 278 277 276 277 272 274 277 279 279 277 279 280 283 286 283 284 284 286 290 292 293 292 291 292 292 291 291 290 291 291 290 291 290 295 294 293 293 295 297 297 296 297 297 299 300 299 299 302 302 304 304 304 306 305 305 305 301 300 299 298 298 298 302 302 301 302 303 307 308
288 289 291 289 290 286 288 289 287 286 286 288 284 279 284 282 278 278 271 275 273 268 272 276 278 279 274 276 282 281 283 283 286 289 288 289 291 292 293 294 292 290 291 290 288 291 289 291 290 290 293 292 292 294 295 295 295 296 296 296 298 297 298 298 300 300 302 303 303 304 304 304 304 303 302 302 302 300 300 301 302 300 299 300 300 301
287 289 287 290 290 290 287 290 288 286 282 284 282 283 276 272 269 272 268 274 271 270 279 277 278 278 279 282 286 285 286 284 284 286 288 288 288 290 291 293 291 289 289 290 289 290 291 290 291 292 291 291 293 294 293 294 294 294 295 296 297 298 297 299 299 300 301 301 302 303 303 303 303 303 303 303 302 300 300 300 300 299 300 300 300 300
284 283 287 290 291 291 290 288 285 286 284 283 285 278 273 270 269 265 261 262 266 273 276 278 280 278 279 281 288 290 289 287 285 285 285 287 289 290 291 290 291 291 290 290 289 289 289 291 291 290 290 291 291 291 292 292 293 294 295 295 296 298 296 297 298 299 300 301 302 302 303 303 303 303 303 302 302 301 301 300 301 301 302 302 303 302
278 279 286 289 287 289 290 290 291 287 286 286 282 284 279 269 266 266 262 271 271 272 274 275 275 273 275 283 287 286 287 286 285 285 286 286 287 287 287 287 286 288 287 288 289 290 291 292 290 291 291 292 292 292 291 291 293 293 294 295 295 296 295 296 298 298 299 301 300 301 302 302 302 303 302 302 302 302 300 300 300 301 301 302 302 302
284 280 282 288 287 290 290 289 288 287 286 282 279 281 278 279 273 272 267 266 265 269 269 273 276 276 281 284 285 286 286 286 286 287 286 288 286 284 286 287 287 286 288 290 289 292 291 290 290 290 291 291 291 291 292 292 293 294 295 294 296 297 296 296 296 298 299 300 300 299 300 301 301 300 301 300 299 300 300 300 300 301 301 301 301 301
281 282 285 286 287 289 289 288 289 288 282 284 283 279 280 280 279 271 270 272 271 269 274 269 278 280 280 283 288 285 285 287 286 285 285 285 285 284 286 285 286 287 287 288 290 290 292 291 291 290 290 291 290 291 293 294 293 295 295 294 296 296 294 295 296 298 298 298 298 299 299 300 299 300 300 301 300 300 299 300 300 300 300 300 299 299
283 279 285 286 287 288 288 287 287 286 285 284 280 282 282 282 279 277 273 265 263 269 272 271 275 276 276 278 280 283 286 286 286 286 284 284 284 287 289 287 286 287 287 287 288 289 289 290 291 292 292 291 292 292 293 294 293 293 295 295 296 295 296 296 296 296 297 298 298 298 298 299 300 300 300 300 300 299 298 298 298 298 298 299 299 299
285 281 283 285 285 288 286 290 288 287 287 283 280 284 285 278 277 277 271 270 266 265 268 270 273 274 278 280 279 282 283 285 287 287 284 288 285 289 288 291 290 288 288 289 290 290 291 291 292 292 292 292 291 291 292 294 293 293 293 294 295 297 298 297 297 296 296 297 299 299 298 298 299 299 299 299 298 297 298 298 298 298 299 298 297 298
287 279 279 286 286 287 287 287 284 284 287 287 287 284 284 280 275 274 276 270 272 268 263 271 268 279 279 279 281 285 282 283 284 284 284 284 286 288 287 290 292 293 294 293 291 290 289 290 290 290 290 292 292 292 293 292 291 292 293 293 295 295 295 294 295 295 296 296 297 297 296 296 298 298 298 298 298 298 298 299 298 298 297 298 297 297
284 284 277 283 286 286 285 285 285 286 284 283 283 281 285 280 282 279 277 274 274 262 262 267 271 274 277 281 283 287 285 284 285 286 285 288 289 285 286 292 294 293 294 295 293 290 289 290 290 289 288 289 288 288 290 291 291 292 292 293 294 295 296 296 296 295 297 296 296 295 296 296 296 296 297 297 297 297 298 298 297 297 297 293 296 294
284 282 279 282 283 283 284 284 286 289 290 288 287 284 286 281 277 275 275 277 270 272 270 264 274 276 281 282 286 287 287 285 285 287 289 289 289 287 289 290 291 294 294 293 293 290 290 290 290 289 287 286 286 289 289 289 288 289 291 294 293 294 295 295 296 296 296 295 296 295 296 295 294 296 295 295 295 295 296 295 295 294 291 293 294 293
287 282 282 278 283 286 285 287 284 287 285 286 285 284 286 284 282 274 273 273 272 274 272 268 268 277 284 286 284 284 284 284 285 289 291 289 289 290 290 290 290 290 292 293 291 291 291 291 290 290 291 291 289 290 288 289 289 290 289 289 290 291 294 294 295 294 294 294 294 294 293 292 293 293 292 293 293 293 294 293 291 290 292 293 292 291
291 280 279 279 278 279 284 284 285 284 288 287 285 281 284 284 283 282 277 276 280 272 273 271 271 277 284 284 283 282 282 283 283 285 289 288 289 289 289 290 290 291 289 288 289 288 290 287 289 294 294 294 294 293 292 291 290 290 289 289 289 290 292 292 292 291 291 292 293 292 290 292 291 289 290 291 292 292 292 291 291 290 292 293 292 292
284 282 284 273 273 277 278 282 284 285 286 281 281 283 284 284 280 278 277 275 276 277 278 276 275 280 285 283 283 284 285 286 287 286 284 290 289 288 288 288 288 288 289 290 291 291 290 291 292 292 292 292 293 293 292 292 292 291 291 289 289 291 291 291 289 290 291 290 291 290 289 290 289 289 290 291 291 291 291 290 290 290 291 292 292 292
288 283 282 276 276 274 273 276 279 282 282 282 279 283 285 286 283 282 279 277 277 276 279 276 280 283 285 284 287 285 285 288 288 287 285 285 287 289 288 289 290 290 291 289 290 290 290 290 290 292 292 292 292 291 291 291 291 291 290 291 288 290 291 291 288 289 290 289 290 291 290 290 289 290 290 291 290 290 290 289 289 290 290 291 292 292
280 281 284 284 282 280 282 281 283 285 283 283 285 285 284 286 286 286 281 277 279 280 275 282 284 282 282 284 287 289 285 288 290 287 288 290 288 286 285 287 289 289 288 289 289 289 290 292 292 290 291 291 290 290 291 290 290 290 290 291 291 288 289 289 288 289 289 289 288 290 291 291 291 290 290 290 290 289 289 289 289 290 291 290 291 292
280 282 284 283 284 285 284 282 283 289 285 287 286 284 286 285 285 284 283 282 285 277 279 283 283 281 285 284 284 285 286 284 286 286 286 286 286 287 290 289 291 288 288 287 290 290 290 289 289 290 291 291 291 291 291 290 289 289 289 290 291 289 287 288 287 288 288 288 289 290 291 291 290 289 289 289 289 289 289 289 289 289 289 288 290 291
285 282 284 283 283 284 282 281 283 286 287 287 287 286 284 285 284 283 285 287 285 282 282 285 283 284 287 287 288 289 287 288 289 288 288 288 286 287 289 289 289 290 290 290 290 290 288 289 289 289 290 290 290 291 291 292 292 292 291 289 289 288 288 287 287 288 288 288 289 290 291 290 289 288 288 288 289 289 289 289 288 288 288 289 290 291
286 282 283 283 284 284 281 282 282 286 284 284 285 286 286 286 285 286 287 288 287 285 286 288 284 284 288 285 289 291 291 290 290 288 287 289 292 292 290 290 290 290 289 289 289 289 289 288 287 288 288 289 290 290 290 291 292 291 291 291 291 290 289 286 286 287 288 288 289 290 289 289 289 289 288 288 289 289 289 288 288 287 288 289 289 290
288 283 287 283 281 281 281 281 282 283 284 283 284 284 285 286 286 287 287 288 287 286 286 285 285 285 289 287 286 288 287 288 289 289 290 291 289 289 288 288 288 288 288 288 288 288 287 287 288 288 289 290 289 289 290 290 290 290 289 290 290 290 289 288 287 286 286 288 289 288 288 288 289 288 288 289 288 288 288 288 288 287 288 288 288 289
287 283 281 281 279 277 281 283 281 282 281 280 282 283 283 284 283 285 284 286 284 285 286 285 284 285 289 287 291 289 287 290 291 291 291 291 289 288 289 287 287 288 288 288 287 287 287 288 288 289 289 288 288 288 288 288 288 288 289 289 289 289 288 287 287 287 288 288 288 288 288 288 288 288 288 288 288 288 287 287 287 287 288 288 288 288
287 285 283 281 279 280 280 282 281 281 281 280 282 285 286 286 286 287 287 286 288 289 285 283 285 291 289 288 288 287 289 288 288 288 290 289 288 287 287 288 288 288 288 287 287 286 286 287 287 287 287 287 288 288 287 286 286 288 288 288 288 287 287 288 287 287 288 288 287 288 287 287 287 288 288 288 288 288 287 287 287 287 287 287 288 287
285 285 282 282 280 280 278 280 280 282 277 279 290 291 290 287 286 284 285 287 288 288 288 290 289 290 288 287 289 289 288 289 290 290 289 290 289 286 286 286 287 287 286 285 285 286 286 287 288 288 287 287 287 287 287 285 286 287 287 287 287 286 288 287 288 287 287 287 287 287 287 287 287 287 288 288 288 287 287 287 287 288 288 287 287 287
285 285 283 284 281 279 279 283 281 277 279 290 290 291 292 290 289 287 289 289 288 289 289 289 290 291 292 291 291 291 291 290 288 288 287 286 286 287 287 286 287 287 286 286 285 286 285 286 286 287 288 288 288 287 287 288 288 287 287 287 287 287 287 287 287 288 288 288 288 286 286 286 287 287 287 287 287 287 287 287 287 287 287 287 287 287
286 285 284 284 285 285 281 283 277 278 287 287 287 288 288 290 289 288 286 289 290 290 290 289 291 293 293 293 292 290 288 287 286 286 286 287 286 286 286 287 287 286 286 286 286 285 285 286 286 286 287 286 285 286 286 287 287 286 287 286 286 286 286 286 286 287 287 288 288 288 288 287 287 287 287 287 287 287 287 287 287 287 287 287 287 287
289 286 286 283 287 281 283 282 282 287 285 287 286 285 287 285 286 286 284 288 291 292 291 292 293 293 294 292 287 286 286 286 286 287 285 285 287 286 288 288 287 286 285 284 285 286 285 285 285 286 285 286 285 285 286 286 285 285 286 287 287 286 286 286 286 287 287 287 288 288 288 287 287 287 287 287 287 287 287 287 287 287 286 286 287 287
292 286 287 284 283 286 282 280 281 281 278 285 289 287 290 291 292 292 290 287 289 291 293 293 292 293 292 286 285 285 287 287 284 285 287 285 285 287 284 284 283 283 284 284 284 285 285 285 285 285 284 285 286 285 285 284 284 284 285 286 286 286 286 285 286 286 286 287 287 287 287 287 286 287 287 287 287 287 287 288 287 287 287 286 287 287
291 291 288 285 284 284 282 279 279 278 281 286 287 288 288 289 293 289 287 284 289 286 285 290 291 291 289 289 284 285 287 286 285 285 287 284 284 285 286 284 283 283 283 284 284 286 286 286 286 285 285 285 286 287 285 283 283 284 285 285 285 285 285 286 286 287 287 287 287 286 286 286 286 286 286 286 287 287 287 287 287 288 286 286 286 287
287 286 286 283 282 284 282 281 278 282 281 285 284 284 286 287 291 289 280 280 288 286 287 288 290 289 286 285 285 286 288 287 286 285 285 285 287 285 285 287 285 284 285 284 284 284 284 285 285 287 287 287 287 287 286 284 284 284 285 285 285 285 286 286 287 287 286 286 286 286 286 286 285 286 286 286 286 287 287 287 287 287 286 286 286 286
284 284 285 281 283 283 284 282 283 283 286 285 283 284 283 288 290 283 278 285 286 285 284 286 286 286 286 285 285 285 285 285 286 286 284 284 285 285 284 283 284 284 284 284 285 285 285 285 285 286 286 286 286 286 285 284 284 285 285 284 284 285 286 286 286 286 286 285 285 285 286 286 285 285 286 286 286 286 286 286 286 286 285 285 285 284
284 285 284 285 283 282 283 281 281 284 286 286 282 285 285 288 280 280 287 286 287 285 284 284 286 284 284 285 285 286 286 284 283 282 284 283 284 283 283 283 282 282 282 283 283 284 283 283 284 285 286 286 287 286 286 286 285 285 284 283 284 285 286 285 285 285 285 285 285 285 285 285 285 285 285 285 285 284 285 286 285 285 285 284 284 283
284 284 281 282 284 285 283 280 280 276 285 287 287 286 286 282 284 288 286 286 285 285 284 283 284 284 283 284 283 284 283 284 284 285 284 283 283 284 283 283 282 282 283 284 284 285 285 285 285 285 285 286 286 286 286 284 283 284 284 284 285 286 285 285 285 285 284 284 284 284 284 284 284 285 285 284 284 283 284 285 284 283 282 282 282 282
289 283 283 284 287 280 281 278 279 286 287 287 290 285 286 287 286 287 288 283 285 282 283 282 282 282 282 284 283 283 283 284 283 282 284 284 283 282 282 282 282 282 283 283 283 284 283 283 283 283 284 284 284 285 284 282 283 283 283 283 285 285 285 285 285 284 284 284 284 284 284 284 284 284 283 283 283 282 282 283 283 282 282 281 281 281
287 285 286 283 287 284 281 284 286 283 284 284 284 284 284 285 285 284 286 288 286 284 281 283 283 282 281 282 283 283 283 283 282 283 282 282 283 283 283 284 284 284 284 284 284 284 283 283 283 282 282 282 282 283 284 283 282 283 283 284 283 284 284 284 284 283 283 283 283 283 283 284 284 284 283 282 281 281 282 282 282 282 282 279 279 280
281 283 283 283 283 283 284 284 283 282 282 283 283 283 284 283 283 284 286 285 283 283 283 283 284 284 284 285 285 284 284 284 283 284 283 283 283 283 283 283 283 283 283 283 283 283 282 282 281 280 280 281 280 282 283 282 280 281 283 284 284 283 283 283 283 282 282 282 283 283 283 282 283 283 283 282 281 280 281 282 282 282 282 280 279 279
279 280 283 281 280 284 280 283 281 282 281 282 283 281 281 281 281 282 283 283 282 283 283 283 283 283 282 282 283 283 281 282 282 282 281 281 281 281 281 280 280 280 280 280 281 281 280 279 279 279 279 279 280 280 281 282 282 282 283 283 283 283 282 282 281 281 282 282 282 282 282 282 282 283 283 282 281 280 280 280 280 280 281 281 280 279
280 281 283 278 280 281 277 280 280 279 279 279 281 283 281 280 280 280 280 280 279 279 280 280 280 280 279 280 280 279 279 279 278 277 278 278 279 279 279 278 278 278 278 278 277 277 276 277 276 277 278 278 279 280 280 280 281 281 281 282 282 282 281 281 281 281 281 281 281 282 282 281 281 281 282 282 282 281 281 280 279 279 280 281 281 280
280 284 275 278 281 278 281 281 279 281 281 280 279 279 280 280 279 278 278 277 277 277 277 277 278 278 278 278 278 278 276 277 277 276 276 276 276 276 276 277 276 276 276 275 275 275 275 275 276 276 276 276 277 278 278 278 278 279 279 280 280 280 280 280 280 280 280 281 281 281 281 281 281 281 281 281 281 281 281 281 282 281 281 282 282 282
280 279 277 279 274 273 276 281 281 279 277 280 279 279 279 279 278 277 276 275 275 274 275 275 275 276 276 276 276 276 275 275 275 274 273 273 274 274 274 273 273 273 273 273 274 273 273 273 273 273 273 274 275 275 274 275 276 278 279 280 280 280 279 279 279 279 279 279 280 280 280 280 281 281 281 281 281 281 281 281 282 282 282 282 283 283
281 280 278 275 276 276 279 283 281 280 279 279 280 277 276 278 278 277 275 274 273 273 274 274 274 274 274 274 274 273 272 272 272 272 271 271 271 272 272 271 270 271 271 271 271 271 271 271 271 271 270 271 271 271 271 272 274 277 279 280 280 280 279 279 278 278 278 278 278 279 279 279 279 280 280 280 280 280 280 280 281 284 285 284 283 284
Wind_Speed
1 6 7 8 8 8 7 5 3 2 6 5 4 5 3 4 2 2 3 1 1 1 5 5 5 6 11 11 12 11 4 4 6 9 10 9 9 9 9 9 12 11 17 1 2 5 6 8 7 6 6 7 6 6 8 9 10 10 12 10 12 10 8 8 8 8 9 9 6 5 9 11 8 7 6 7 7 7 7 6 6 7 8 10 10 9
4 5 7 8 9 8 5 6 8 8 4 6 6 4 1 1 1 0 0 2 2 1 2 1 2 8 12 12 12 9 5 10 11 11 11 12 11 10 9 12 13 14 7 5 5 5 5 6 5 3 5 6 8 11 10 12 14 12 8 9 10 6 8 10 11 10 9 9 10 10 10 9 6 6 7 7 5 6 4 4 5 6 6 7 8 8
2 8 9 7 3 6 5 3 2 5 5 3 6 3 3 2 3 4 1 2 2 1 6 2 5 10 10 11 12 9 13 9 6 7 9 7 10 10 10 12 14 10 13 8 9 5 5 5 4 4 5 7 11 9 10 9 5 6 8 9 8 9 10 10 10 9 10 8 6 7 5 8 4 3 5 5 3 4 5 4 4 5 6 7 7 8
2 6 10 3 6 7 3 3 6 6 6 5 5 3 3 2 2 1 2 1 2 1 2 3 7 12 7 6 12 12 6 6 6 7 9 8 11 12 14 12 10 11 11 11 9 10 4 3 5 4 6 8 5 4 5 7 9 8 8 8 9 10 9 9 9 9 6 5 4 1 2 2 4 4 4 4 2 4 4 6 5 5 5 6 7 8
7 1 1 10 5 7 6 3 6 6 3 1 3 3 3 1 2 2 0 1 1 1 2 3 4 10 4 4 3 2 2 3 5 4 7 9 10 12 8 8 8 11 8 8 9 9 6 5 7 7 5 4 6 7 8 8 9 8 11 11 10 9 9 7 6 7 5 5 4 3 3 4 3 3 2 4 5 5 5 4 5 7 5 6 6 7
3 2 4 8 4 4 6 3 5 8 1 1 3 5 4 4 5 0 2 2 4 2 3 3 4 4 5 5 8 10 7 8 2 3 9 10 6 5 9 13 7 6 5 7 9 9 7 7 7 5 2 5 5 8 8 5 5 5 6 5 5 5 5 7 7 7 7 8 9 7 6 5 4 5 4 9 10 7 8 9 5 5 6 7 7 7
4 1 2 7 6 4 5 4 4 5 6 3 4 4 3 6 5 5 1 3 1 1 2 2 2 7 5 5 6 6 6 9 11 6 10 8 6 5 9 9 7 7 6 5 6 9 6 5 5 7 4 4 5 3 0 2 4 4 4 5 5 6 5 5 6 7 7 6 7 10 11 10 11 10 7 3 3 6 6 6 7 7 6 7 7 7
2 1 5 4 5 4 4 2 3 8 7 4 1 5 6 7 5 4 3 2 1 1 3 4 2 2 9 7 3 3 4 10 11 12 11 9 7 7 7 7 8 7 5 7 6 5 4 4 4 6 4 3 3 1 2 4 4 5 4 4 5 4 5 4 5 7 8 9 8 8 8 8 8 9 8 5 5 4 4 6 7 5 6 6 6 7
2 3 3 4 2 3 6 3 5 4 5 2 2 6 4 5 3 5 4 4 1 2 7 3 0 1 5 8 5 2 6 6 8 8 9 9 8 7 6 7 7 6 5 4 5 5 5 5 4 5 4 3 2 1 3 3 3 2 2 3 4 5 5 5 6 7 7 8 8 9 8 8 7 5 4 3 3 5 5 5 5 7 7 7 7 7
2 2 5 7 6 5 3 0 3 6 4 1 7 7 7 7 7 3 4 2 1 1 6 2 2 2 9 6 6 1 1 4 3 5 7 7 8 7 6 4 3 2 2 3 6 5 4 3 3 3 3 1 1 1 0 1 1 2 3 4 4 4 4 5 6 6 7 6 6 7 7 9 7 4 3 3 5 5 4 6 6 6 7 7 7 7
1 4 5 4 4 3 5 1 2 0 2 9 5 7 6 8 5 3 7 2 3 1 6 5 3 2 5 5 5 1 1 2 2 4 5 6 6 6 3 2 2 4 4 3 2 2 2 2 2 3 1 0 1 1 0 1 1 1 3 4 4 4 4 4 6 6 7 6 6 8 8 9 8 6 6 5 5 4 4 7 6 6 7 5 7 6
2 1 1 1 3 3 3 5 4 3 4 7 3 4 5 2 6 3 5 5 1 5 5 1 2 1 6 6 4 8 4 3 2 1 5 7 6 4 3 3 4 4 3 3 3 3 4 2 3 3 3 3 2 1 0 0 0 1 3 3 4 3 4 4 5 5 6 6 7 6 7 8 8 7 8 9 10 8 8 7 7 5 5 5 5 6
1 2 1 5 4 7 4 9 4 3 2 5 7 7 5 2 5 3 3 2 5 5 0 3 2 1 11 9 5 5 9 5 6 6 3 5 6 5 3 4 5 4 4 3 3 4 4 4 4 5 3 3 1 0 1 1 1 2 2 4 5 6 5 6 6 7 6 6 7 8 8 7 7 8 9 9 8 6 8 7 6 6 7 6 7 7
4 2 1 2 2 3 5 11 3 2 1 4 7 6 5 1 1 3 4 1 5 5 4 2 1 5 3 6 13 17 4 1 4 9 6 5 6 7 5 6 6 6 5 4 4 4 4 4 4 4 4 3 2 1 2 2 2 3 3 3 4 4 4 4 5 6 6 7 7 7 8 8 7 8 8 8 8 8 8 7 9 9 9 9 10 8
3 4 6 6 2 2 3 5 12 8 8 7 1 9 9 8 6 4 3 5 5 4 2 4 1 7 2 0 1 5 5 6 5 6 6 6 8 6 6 5 5 5 5 2 3 4 4 5 4 5 5 6 5 4 3 2 3 2 4 4 4 4 4 5 6 5 7 7 7 7 7 7 7 8 8 8 8 8 8 8 8 8 7 8 8 8
8 4 4 2 2 4 8 1 4 6 4 0 3 6 6 7 6 1 4 2 0 1 2 1 6 3 4 3 8 5 5 6 5 6 3 8 5 4 3 4 5 5 6 4 4 5 4 3 4 4 4 5 5 5 5 5 3 3 4 4 5 5 5 5 6 7 7 8 7 7 8 9 8 7 6 6 6 7 7 8 9 9 8 8 7 6
3 4 2 6 4 2 0 0 0 2 7 4 4 4 5 2 9 6 2 1 1 4 9 2 8 6 8 6 9 5 4 6 0 4 4 3 1 2 2 4 5 5 4 4 4 4 5 4 2 2 3 4 4 4 5 5 4 4 4 4 5 5 4 5 6 7 6 7 6 8 7 7 7 7 9 9 9 8 7 7 8 8 7 6 6 6
9 3 1 3 3 1 0 1 3 5 3 8 2 7 2 2 4 5 4 2 3 3 8 2 7 4 3 7 5 3 2 8 5 7 5 4 2 1 4 3 3 4 4 4 5 4 4 3 5 6 4 3 4 4 6 6 4 4 4 4 5 5 6 6 6 7 7 8 8 8 8 8 8 8 8 8 7 6 6 6 6 5 6 7 7 7
6 1 1 1 0 5 2 1 3 2 2 4 4 4 7 3 1 2 4 2 1 3 6 4 2 5 7 8 4 2 4 6 8 8 4 4 3 4 5 5 3 3 2 1 1 4 5 4 5 5 6 6 4 4 5 7 6 4 4 4 5 8 7 6 6 6 6 7 7 7 8 8 8 7 7 6 6 5 7 8 7 8 8 6 6 7
1 5 2 1 2 1 1 4 9 3 2 1 3 4 0 3 2 4 6 4 5 4 2 9 3 8 5 6 8 6 6 7 5 3 5 2 1 3 1 0 1 1 1 1 3 2 2 4 4 4 4 5 5 5 5 7 5 5 4 4 5 6 5 5 6 6 8 8 7 7 5 6 6 7 7 7 7 8 9 9 8 8 6 8 6 7
3 1 4 1 2 2 3 5 11 11 9 3 3 2 0 1 1 4 1 3 4 5 5 3 8 5 6 6 8 10 8 8 8 5 2 1 4 4 3 1 1 1 1 0 1 2 3 4 4 4 5 6 5 4 6 7 7 4 3 4 5 7 7 7 8 6 8 5 7 6 8 7 6 7 7 7 7 8 9 7 7 7 6 5 7 5
3 3 8 3 1 5 6 2 2 9 10 12 12 11 12 9 4 5 8 3 2 3 5 3 12 3 4 2 8 9 10 1 1 6 6 6 4 3 2 1 0 3 2 1 1 2 4 4 4 5 6 4 4 5 7 5 3 4 4 5 4 5 7 6 7 6 6 5 5 7 7 6 5 7 6 8 7 9 9 7 6 6 5 7 7 6
4 3 8 4 8 10 3 1 2 0 2 1 3 7 6 5 7 5 6 5 2 3 5 3 1 10 5 5 3 2 1 3 5 7 9 5 4 2 1 1 1 2 1 2 3 5 4 5 5 5 3 1 3 3 3 4 5 4 5 5 5 5 8 4 5 4 4 5 6 7 6 6 7 6 6 7 8 9 10 9 7 6 7 8 7 6
5 4 4 1 2 4 3 3 2 2 1 1 1 2 5 8 7 8 5 7 9 2 1 1 2 8 2 2 2 2 2 1 3 6 6 3 1 1 2 1 1 1 3 4 5 4 4 5 5 7 10 11 10 10 10 9 7 7 5 5 4 6 8 5 4 5 5 5 7 6 5 7 6 5 7 8 9 9 8 6 6 6 8 9 7 9
4 3 7 3 2 3 5 3 2 2 1 3 3 3 4 3 4 2 5 1 1 8 8 8 11 8 2 4 3 0 2 5 5 3 3 1 0 1 2 3 3 3 4 5 5 5 6 7 9 7 7 9 10 11 10 9 9 7 8 6 5 7 6 5 4 4 5 5 6 6 6 7 5 7 9 10 8 9 7 6 7 6 9 8 9 8
6 5 8 7 11 10 8 10 15 14 10 2 1 3 5 9 6 4 4 2 6 4 7 5 11 3 3 2 0 1 3 3 2 3 3 3 3 2 3 4 5 6 7 6 6 6 7 5 5 9 10 10 9 8 8 8 8 8 7 8 5 6 8 6 4 5 5 4 6 7 7 8 6 8 9 9 8 8 7 7 7 8 7 8 9 8
3 2 6 10 13 14 13 3 3 12 4 7 8 9 6 7 11 9 4 5 13 7 7 12 14 3 3 1 0 1 4 7 6 5 3 1 2 4 5 5 3 5 4 5 5 5 7 12 12 9 8 7 6 7 7 7 8 7 7 9 7 4 5 6 5 5 5 5 5 7 9 8 8 8 7 7 8 6 7 8 8 7 9 7 8 9
3 3 8 9 12 12 7 5 7 13 12 15 14 11 13 11 10 12 11 15 9 6 10 12 5 6 13 4 3 4 5 4 5 6 3 3 4 4 4 5 5 3 3 4 7 9 8 7 7 8 8 8 8 8 7 6 5 5 6 8 9 7 5 6 5 5 5 5 6 8 10 9 6 6 7 6 6 7 7 7 7 8 7 6 9 10
5 7 6 6 9 11 4 5 9 7 11 12 15 14 14 14 11 15 17 19 8 11 18 11 9 11 16 10 10 10 7 7 8 5 2 3 2 4 5 3 4 5 6 8 8 7 6 6 6 7 7 7 8 9 9 9 9 8 7 5 5 5 6 6 4 5 5 5 7 9 7 6 5 5 5 6 7 7 8 7 7 7 7 8 10 10
3 5 5 6 10 10 4 4 6 11 6 5 9 12 15 16 17 20 21 19 16 13 13 15 9 14 13 5 12 13 8 8 4 1 1 3 6 6 8 9 8 7 7 7 6 5 4 4 5 5 6 7 7 8 9 10 10 10 9 10 9 7 6 4 4 5 5 6 8 7 6 6 6 6 6 6 7 8 7 6 7 7 8 10 10 9
5 4 4 4 4 7 5 2 4 8 8 8 7 9 12 15 18 21 20 18 13 10 10 10 10 14 10 7 5 7 1 0 0 4 5 5 5 4 4 5 5 4 4 3 3 4 4 5 5 5 6 7 7 7 7 7 8 9 9 8 9 9 8 6 6 4 5 7 7 6 6 6 7 5 7 7 7 7 6 7 7 7 9 9 8 9
4 3 2 2 4 4 1 6 4 3 3 5 7 8 12 15 15 14 13 9 8 12 14 13 13 16 7 9 8 1 3 3 6 6 6 5 3 2 5 3 2 1 1 3 4 4 5 6 6 6 6 6 6 5 5 7 7 7 8 8 8 9 8 7 6 6 6 6 7 7 7 6 6 6 7 7 8 7 6 6 7 8 9 8 9 9
3 5 4 4 5 6 2 6 6 5 3 4 11 16 21 17 13 9 8 9 15 16 14 11 16 17 6 8 5 3 8 6 5 5 6 4 4 2 2 3 2 2 2 3 4 5 5 5 5 5 5 5 5 5 5 4 5 7 7 8 8 7 7 6 6 6 7 6 6 7 6 6 6 7 8 8 7 6 6 7 8 9 8 10 9 6
2 5 4 2 6 2 5 6 4 6 11 15 11 15 11 17 16 12 10 17 16 11 10 10 10 3 4 5 6 5 6 4 6 3 1 3 4 4 4 3 2 1 2 3 3 4 5 5 6 6 5 5 5 5 5 4 4 6 6 6 6 6 6 7 8 6 7 6 6 7 6 7 7 8 8 7 7 6 7 7 10 9 8 7 6 8
3 3 4 2 4 3 3 7 5 14 14 6 3 5 12 9 7 16 17 10 5 7 7 10 13 14 11 5 5 5 4 1 4 6 3 2 4 4 4 1 1 1 1 2 4 5 5 5 6 7 8 8 8 8 8 9 7 8 9 8 9 7 9 8 9 9 8 9 8 6 6 7 6 7 8 7 7 7 8 8 9 8 8 7 9 9
5 4 3 1 3 3 3 7 10 9 3 0 5 4 3 5 7 7 8 11 10 12 13 15 18 16 9 6 1 3 8 6 4 2 1 0 2 3 3 1 1 1 3 3 2 4 4 4 5 5 6 5 5 7 5 7 8 8 9 7 6 8 7 7 8 8 8 10 10 9 8 8 9 9 8 7 7 7 9 8 9 10 8 7 8 8
6 3 2 3 4 7 6 11 11 6 8 4 4 3 5 7 7 10 10 13 14 12 12 14 15 12 10 3 7 5 6 5 4 1 2 1 1 0 0 1 0 1 1 3 2 4 4 4 4 5 5 5 4 5 5 5 5 6 8 10 9 7 7 7 7 8 9 9 9 10 10 9 10 11 10 10 10 10 10 9 10 8 5 8 9 9
7 8 4 6 4 6 5 4 2 6 13 16 6 1 5 6 9 10 10 11 3 10 13 14 14 12 7 4 7 8 7 6 3 4 3 3 2 1 2 2 1 1 2 3 3 3 3 4 3 3 4 6 6 5 4 5 5 6 7 7 7 8 8 6 7 7 7 8 9 9 9 9 8 10 11 10 11 12 11 9 8 8 5 8 9 10
9 10 7 10 4 7 9 9 7 7 8 3 3 4 5 6 9 5 5 12 3 5 5 8 11 9 7 7 6 9 8 6 7 5 5 4 3 1 1 3 2 2 3 4 4 7 7 8 7 6 5 4 6 7 5 4 4 5 7 6 7 6 7 7 7 8 9 10 9 9 9 8 8 9 10 11 12 10 12 11 10 9 5 8 8 10
11 9 8 10 9 7 7 8 9 3 4 2 2 1 4 5 6 8 9 8 6 8 7 9 11 8 4 4 9 8 9 9 6 5 4 3 0 1 0 1 3 5 5 4 5 4 5 6 7 9 9 10 10 8 7 6 6 6 7 8 6 8 9 9 9 10 9 10 10 9 10 8 9 10 9 11 12 11 11 10 9 9 8 8 7 9
7 5 9 13 10 10 11 6 2 4 3 3 3 1 3 5 8 10 13 5 2 5 3 5 5 5 6 5 4 6 1 3 5 4 3 2 1 1 0 1 2 2 4 5 6 6 5 6 5 6 8 8 8 7 6 6 6 7 7 7 7 9 8 8 8 9 9 9 10 10 10 9 7 11 11 8 10 11 11 9 9 10 8 9 8 8
6 4 3 8 11 9 7 9 7 2 5 8 1 6 4 6 5 9 3 1 11 5 4 4 8 4 5 7 6 6 5 1 2 2 4 3 1 1 1 1 2 3 3 3 5 5 5 5 6 8 8 6 8 7 6 5 7 6 7 6 8 9 7 6 8 8 8 10 10 11 11 10 10 8 9 10 8 10 12 10 7 9 9 8 8 10
10 8 7 9 4 4 3 5 4 9 2 5 7 1 0 4 5 4 4 2 1 6 7 3 5 4 4 3 3 5 4 3 3 3 1 1 1 2 3 3 3 4 5 5 5 4 5 6 6 8 8 8 8 8 7 7 9 9 8 9 10 9 7 7 8 8 9 10 11 11 11 11 11 11 8 9 8 8 12 11 9 9 8 8 9 10
7 7 3 5 7 8 10 9 7 3 4 6 9 9 6 9 2 7 10 3 1 4 5 4 1 4 4 5 4 3 3 4 3 3 1 0 0 2 3 3 3 3 4 3 4 5 5 6 6 7 8 8 7 6 5 5 8 8 7 10 9 8 10 10 10 9 10 11 11 12 12 12 12 11 9 9 9 9 11 12 10 8 8 7 8 10
6 9 6 9 6 9 6 6 1 1 3 0 1 0 2 1 3 3 4 10 9 3 2 6 4 2 3 5 5 4 4 3 2 1 1 0 1 2 2 3 3 4 5 6 6 6 5 7 9 9 9 7 7 9 8 6 8 12 12 9 6 10 11 12 11 11 11 12 12 12 11 12 12 12 10 9 7 9 11 11 9 10 9 6 8 9
3 1 1 3 3 1 2 1 2 1 2 2 4 3 3 3 4 4 7 8 3 3 2 5 4 5 4 3 7 3 3 1 1 0 0 1 1 2 1 2 3 3 4 5 5 6 7 7 7 7 9 9 5 8 8 7 5 11 13 10 8 9 11 13 14 14 14 14 13 13 12 13 13 13 10 10 7 8 9 10 11 10 10 8 8 8
3 1 1 2 2 5 6 2 4 3 2 4 6 4 6 6 4 3 7 5 4 5 7 5 6 6 5 6 6 3 2 1 1 1 2 3 5 6 7 6 5 5 8 9 8 9 9 8 10 12 11 13 8 6 9 9 8 7 9 11 10 9 10 12 13 14 14 14 13 13 13 13 11 12 12 11 8 7 8 8 9 9 10 10 9 9
4 3 3 2 2 6 2 2 1 3 3 2 1 5 4 6 8 8 7 6 7 5 6 4 4 6 3 6 3 3 3 3 3 3 3 3 4 4 5 5 7 7 5 5 7 7 7 9 9 11 11 12 12 10 10 10 10 9 10 10 10 10 11 12 12 13 15 16 13 11 11 11 14 14 11 12 11 10 10 9 8 9 11 11 10 9
3 6 4 5 5 1 4 1 3 5 5 3 4 4 3 6 9 7 6 7 6 8 6 7 6 4 5 4 4 2 2 2 3 3 3 4 4 4 5 6 6 6 7 7 7 7 8 8 9 10 12 13 11 10 11 11 11 10 11 10 9 10 11 13 13 14 15 15 12 13 11 10 11 11 11 12 12 11 10 11 11 10 12 12 9 9
4 6 2 4 2 2 6 7 6 7 3 3 2 2 3 3 7 8 5 7 6 6 4 6 5 5 5 5 4 3 2 1 2 4 4 3 4 5 5 6 6 7 7 6 7 7 7 8 8 11 12 11 10 11 12 12 11 10 10 10 9 10 11 12 12 13 13 12 12 12 12 12 12 12 11 11 12 12 13 12 15 14 13 13 12 15
8 7 7 6 7 7 6 8 5 3 3 3 7 4 2 3 5 8 6 7 5 4 4 4 4 2 4 4 4 5 4 4 5 6 8 7 7 7 7 8 9 10 10 10 11 11 11 12 12 12 13 12 10 10 11 12 11 11 10 9 9 9 11 11 11 12 12 12 11 12 13 13 13 13 12 12 12 11 12 14 13 14 20 22 20 17
Wind_Direction
106 133 175 190 194 194 201 179 174 164 152 110 84 103 163 167 278 278 284 268 8 108 240 232 259 271 276 268 269 274 325 310 284 273 264 265 267 264 260 256 257 253 248 289 201 228 236 242 232 220 201 209 210 217 209 206 206 201 201 187 202 198 183 177 179 182 183 190 195 208 208 216 213 214 209 211 214 216 219 207 201 201 201 195 201 205
65 150 223 204 201 189 170 133 113 75 54 136 132 129 140 160 154 208 137 1 323 140 290 50 310 265 257 269 267 271 294 266 248 250 253 253 252 258 259 263 259 254 290 286 289 266 272 263 271 240 202 189 195 218 202 205 207 204 196 195 202 176 188 192 191 188 189 193 197 195 207 207 202 206 209 216 209 217 220 216 210 202 200 198 198 201
116 189 223 211 156 100 105 117 71 114 111 53 140 154 106 254 244 288 265 329 330 77 272 357 338 281 265 260 264 249 242 240 236 225 242 241 259 255 252 252 262 282 276 294 277 264 245 269 278 240 220 214 214 212 201 213 199 195 196 203 194 189 190 199 193 182 195 196 198 193 200 189 208 227 212 212 197 194 214 228 225 219 208 202 201 197
123 278 235 141 137 114 63 98 99 69 63 106 97 99 198 242 114 264 284 356 1 58 306 322 312 285 277 270 259 260 251 263 252 246 247 228 241 247 243 240 251 258 265 275 280 282 289 280 266 248 229 225 222 226 204 200 200 198 202 201 196 194 195 194 195 194 194 180 165 134 137 158 163 188 187 195 183 187 198 223 224 240 225 215 208 200
188 220 67 126 151 141 138 138 124 131 154 15 119 127 121 156 225 147 246 330 338 51 59 333 295 294 337 340 331 317 319 299 285 301 268 259 238 249 279 287 243 252 260 274 288 285 294 288 259 230 232 201 204 213 210 199 200 198 202 203 196 192 194 192 182 182 159 129 126 101 66 71 74 45 94 169 220 210 212 217 214 225 229 236 231 218
246 263 139 104 95 83 112 128 188 134 130 335 233 168 190 177 143 258 8 99 21 342 346 35 350 304 296 292 252 280 340 316 269 322 276 255 260 278 266 260 265 263 239 238 255 268 264 258 285 300 251 202 217 217 219 207 207 201 212 201 195 184 180 187 183 173 162 175 174 169 175 193 195 211 182 203 205 199 207 216 202 204 210 222 231 231
195 18 138 156 134 105 110 156 218 140 162 119 253 169 164 145 125 130 96 73 340 158 337 34 129 273 302 276 283 309 337 300 307 283 273 297 284 256 253 264 272 253 265 273 261 255 277 287 289 289 262 227 222 255 300 196 202 207 205 197 190 189 184 176 174 171 170 180 189 193 200 204 204 212 224 202 193 193 211 202 208 211 209 216 222 226
102 58 76 74 104 112 125 125 214 146 122 206 238 122 109 105 126 154 111 128 203 260 302 35 105 215 302 286 249 312 335 296 292 294 300 291 290 276 259 256 260 265 245 242 261 310 291 272 248 264 283 260 240 238 173 192 194 201 205 185 192 179 169 177 169 177 185 189 193 200 212 212 216 214 220 188 202 191 179 200 211 208 215 214 220 222
140 164 132 114 84 110 173 211 175 133 123 222 187 129 130 139 146 117 95 111 92 42 284 330 280 267 257 267 310 334 305 301 305 295 300 306 303 294 283 263 256 261 265 262 273 278 297 292 267 249 271 267 252 218 187 196 192 184 172 167 164 176 168 180 177 182 196 198 194 201 204 220 227 221 222 180 186 186 184 203 209 209 214 214 216 221
351 166 213 148 133 182 232 250 167 132 96 244 129 90 89 79 68 87 102 79 350 36 269 235 200 199 277 283 328 330 234 292 271 296 303 307 305 304 311 319 310 291 276 251 243 262 275 284 272 251 252 294 284 254 183 167 145 159 151 163 166 188 180 179 183 188 196 200 191 202 211 220 225 204 198 166 202 204 190 214 212 215 217 216 221 222
254 314 176 91 179 192 137 48 153 306 111 128 107 81 34 38 24 21 56 79 50 325 252 247 303 161 290 276 230 127 174 196 284 309 305 328 351 358 341 303 344 16 5 354 312 287 283 291 315 328 59 349 17 28 102 110 151 154 166 174 180 198 180 177 187 185 198 200 198 209 209 216 219 207 198 206 227 213 210 221 220 216 223 222 226 221
11 353 84 274 93 114 104 82 16 58 102 124 102 123 68 351 15 34 346 34 144 271 264 250 241 143 184 288 293 236 277 234 187 266 310 324 328 327 347 13 15 358 340 315 347 336 337 346 348 6 19 356 345 21 48 355 82 178 188 174 194 207 190 189 190 187 202 197 208 215 212 218 218 203 203 212 220 207 214 214 222 218 225 233 239 239
28 113 268 328 200 125 112 88 3 20 2 82 90 65 109 243 37 279 15 255 215 209 271 336 173 325 237 230 251 274 254 257 214 209 251 297 298 300 306 11 344 333 332 329 334 338 337 341 334 340 331 342 355 325 297 276 249 233 208 194 198 218 198 196 190 196 200 200 209 208 214 220 213 212 213 218 224 206 214 211 221 209 220 217 225 226
269 285 342 303 33 228 139 125 145 133 342 97 126 127 102 148 95 251 278 248 307 290 268 296 209 264 244 270 242 247 239 201 210 233 233 237 256 280 302 346 332 324 300 284 302 295 295 296 304 306 303 284 256 260 276 276 245 235 221 218 219 238 207 206 198 199 198 210 211 208 213 217 210 220 216 221 219 213 209 206 215 213 214 215 218 218
128 300 248 144 233 163 195 155 173 160 169 206 105 148 176 145 157 211 192 210 218 205 281 281 58 232 108 244 256 238 245 273 255 248 249 257 263 282 299 288 295 311 293 282 293 294 290 296 300 307 315 314 318 327 327 296 261 249 241 225 228 239 224 207 212 202 209 213 210 210 214 215 214 220 218 222 218 215 213 212 218 220 219 221 223 217
204 206 269 265 268 158 173 255 108 93 40 14 155 76 92 221 141 154 208 147 239 344 351 234 216 195 162 271 278 260 282 281 270 272 313 288 359 329 351 317 292 291 290 320 321 309 299 284 292 297 306 310 315 318 313 302 281 257 250 236 237 233 217 212 214 215 212 218 212 211 212 216 216 221 224 231 223 224 214 217 216 225 220 225 224 221
59 231 347 308 46 125 102 253 99 135 179 223 106 203 208 131 99 93 68 25 96 44 256 153 301 296 295 324 283 323 318 288 292 290 295 278 45 325 283 290 304 282 282 321 320 310 309 328 301 250 271 295 310 306 291 283 263 252 264 258 262 255 240 220 221 221 213 217 214 222 219 219 218 218 220 223 224 222 220 219 223 224 226 224 217 220
151 225 332 80 189 7 216 99 95 32 145 97 183 229 179 132 118 129 214 359 68 193 267 90 234 298 31 283 327 339 315 302 293 266 276 310 49 295 358 348 294 295 296 287 277 265 262 266 294 319 319 303 288 278 289 280 263 249 246 247 259 262 246 236 222 224 215 213 219 221 219 219 218 220 226 227 232 225 226 228 228 228 231 221 216 209
121 103 310 357 98 295 348 112 32 353 40 144 197 190 116 227 223 310 88 248 143 274 274 297 267 249 193 244 335 5 171 242 268 277 305 278 354 39 21 10 331 302 318 323 315 349 345 336 329 327 309 302 274 267 268 277 274 267 260 247 241 253 247 242 227 227 230 219 220 220 221 217 221 225 229 231 232 229 230 231 224 224 226 224 210 212
119 143 285 338 125 299 5 103 198 197 353 57 94 82 122 99 156 125 198 171 124 245 51 288 30 259 196 215 202 224 215 216 239 297 267 245 233 84 253 263 331 348 15 351 350 322 299 296 284 275 274 280 284 290 279 270 268 261 259 257 257 264 264 261 238 223 227 223 221 229 223 224 219 222 224 224 223 228 231 232 226 227 226 221 212 214
170 136 209 301 299 87 189 204 214 159 147 107 99 175 175 33 228 108 49 130 179 175 181 266 306 276 261 214 184 209 207 217 196 197 238 177 143 195 215 184 7 64 91 349 257 271 271 275 285 281 267 272 292 283 276 262 253 254 257 254 249 252 259 249 243 227 236 222 228 225 228 225 217 225 220 229 226 233 237 237 230 230 227 217 226 204
118 183 186 127 77 229 244 279 159 171 179 169 167 190 175 131 139 159 255 37 104 130 234 145 261 234 260 172 201 196 218 153 166 137 131 136 167 194 238 240 256 30 31 337 281 246 267 257 239 229 241 267 292 286 264 263 302 309 288 270 270 260 256 252 252 235 246 237 237 231 234 232 231 228 222 226 226 232 240 239 232 228 226 229 230 206
143 124 104 180 201 206 218 351 296 333 71 192 174 222 172 168 110 129 196 244 39 249 113 162 289 276 236 196 201 276 302 202 161 141 132 156 166 201 253 264 290 257 266 280 280 293 292 298 301 294 280 224 211 246 312 351 359 316 297 294 281 270 267 252 266 262 250 246 244 244 238 235 233 225 230 236 239 237 230 221 220 212 223 232 231 222
98 100 103 314 318 320 316 309 49 64 104 327 306 112 142 198 183 178 168 179 169 166 159 305 254 253 291 359 284 285 276 253 168 133 148 193 210 247 226 230 244 282 278 269 274 272 296 311 319 352 358 351 352 355 354 348 341 329 316 300 291 273 277 284 267 264 253 248 250 248 246 242 241 233 236 236 237 241 244 243 237 217 223 227 220 222
157 265 140 127 28 346 343 344 347 332 124 197 182 207 195 130 81 120 104 84 165 217 175 134 234 261 274 343 329 354 134 127 159 224 164 107 302 277 265 266 269 279 309 335 341 332 333 354 0 345 343 349 349 348 353 348 337 334 324 316 297 284 281 284 282 268 260 250 261 263 253 255 240 236 238 240 242 244 242 235 232 222 227 228 230 229
185 173 145 155 182 190 200 195 213 205 193 199 229 193 188 161 139 113 214 190 216 252 162 193 247 253 292 316 30 47 118 147 210 178 287 266 228 223 280 299 325 351 354 335 333 348 347 323 337 359 357 353 350 344 338 338 334 331 325 313 303 297 305 303 296 264 265 257 256 261 254 251 244 239 243 245 248 247 245 238 231 231 232 225 234 230
167 158 192 191 196 212 216 201 74 106 110 196 219 178 195 192 183 183 115 150 214 217 172 224 228 199 266 318 346 157 156 163 196 229 220 233 264 279 280 277 310 351 319 312 307 332 357 6 357 345 345 343 337 340 339 333 330 329 325 318 323 302 290 294 290 278 269 266 254 263 260 254 246 245 247 247 249 249 243 238 235 231 236 227 231 232
81 193 222 205 224 226 212 179 199 154 175 204 199 200 194 184 183 180 182 219 198 84 246 231 206 230 238 230 259 248 230 254 250 240 260 274 268 242 253 291 341 303 277 325 4 9 0 342 343 346 341 342 342 337 341 337 324 320 317 317 321 327 316 297 287 283 275 267 263 257 262 259 258 254 252 252 248 245 242 241 237 236 240 232 233 233
151 202 228 166 238 239 194 188 173 187 186 196 202 194 193 193 180 191 215 224 169 194 231 236 148 214 244 197 212 216 194 205 220 218 218 244 240 258 263 287 328 334 342 11 3 2 355 354 342 337 339 338 342 347 344 340 340 343 339 324 318 323 318 306 301 292 286 280 269 268 273 286 284 269 260 252 252 249 246 241 238 236 232 230 235 234
127 235 211 174 221 235 222 192 184 182 208 204 203 202 198 189 196 202 216 220 207 217 229 245 196 220 241 188 203 228 218 217 249 73 303 301 282 310 344 353 349 333 351 356 336 335 351 349 346 336 335 343 348 345 344 342 341 343 339 333 336 336 331 319 281 278 283 274 271 277 284 281 278 273 266 263 256 255 252 247 241 236 235 236 236 240
154 260 118 142 196 248 219 136 187 202 188 208 220 208 203 205 207 209 215 222 221 244 258 267 270 265 248 180 220 247 219 56 1 293 270 262 282 310 336 301 289 332 322 299 329 352 346 347 345 345 350 346 345 340 337 331 328 330 330 332 333 331 329 331 303 282 271 277 280 284 285 284 280 281 274 265 264 261 256 250 243 240 240 241 239 239
149 244 53 100 182 274 214 164 169 144 190 215 225 211 213 209 218 220 219 216 190 216 227 239 254 256 249 149 218 161 149 219 240 251 266 273 272 226 232 269 315 305 330 344 349 353 356 350 347 344 340 332 329 330 334 332 326 324 325 325 323 321 322 326 320 308 299 288 294 293 293 292 295 290 280 278 270 265 259 254 247 246 244 245 243 240
166 145 156 163 188 231 246 145 126 109 97 261 233 223 214 213 211 215 222 221 215 205 214 211 233 245 211 186 154 165 178 208 231 232 245 272 260 216 167 150 145 43 4 354 352 349 340 335 326 320 321 321 322 328 320 310 311 318 320 319 311 314 318 323 325 320 312 308 302 296 298 298 295 288 285 280 278 274 267 254 254 251 248 246 242 240
111 138 174 172 191 174 127 133 126 122 211 224 222 222 198 206 201 194 209 217 219 188 213 218 243 281 103 171 181 199 162 206 208 225 205 199 170 122 116 124 114 82 350 342 334 329 322 327 329 325 319 309 309 309 306 300 295 301 300 294 305 318 327 332 332 331 318 314 310 308 307 301 295 287 283 286 287 281 271 262 257 257 252 256 249 238
137 131 162 165 143 178 149 125 141 215 228 226 320 162 191 195 168 203 222 228 205 219 252 277 266 256 235 205 204 204 190 105 80 120 95 80 107 114 123 115 68 44 356 343 342 340 332 320 319 325 331 336 334 329 336 334 342 331 331 340 336 338 337 341 334 335 334 330 323 317 307 298 288 287 290 288 286 282 272 265 268 264 255 248 246 242
190 160 156 94 145 92 149 172 222 224 212 276 266 273 336 157 184 169 251 248 214 202 202 227 240 247 251 240 189 135 137 147 89 48 88 29 122 127 102 81 343 347 351 332 322 309 318 316 308 301 300 304 318 320 327 320 329 335 326 326 326 329 335 333 333 327 334 332 330 327 323 319 315 310 305 298 289 278 273 268 259 263 258 249 251 245
176 110 156 217 197 207 182 205 228 16 326 281 267 218 155 159 153 171 224 242 220 210 204 224 238 242 242 217 119 113 116 99 78 15 300 290 302 294 154 331 229 284 272 297 285 293 290 285 292 297 297 306 309 313 315 317 326 325 323 331 332 334 333 334 330 328 328 325 321 321 320 321 316 312 311 309 304 295 286 282 276 266 249 255 252 249
176 188 183 201 226 187 211 216 196 212 235 239 219 204 193 173 171 183 197 256 208 208 211 216 232 238 235 134 134 145 145 98 172 235 253 250 258 286 324 298 314 278 279 281 291 269 280 279 272 277 292 310 317 308 310 323 324 322 320 318 321 329 329 330 320 315 315 312 313 311 312 310 309 306 305 305 299 295 292 285 275 273 249 249 262 256
195 192 188 196 211 173 207 224 222 206 236 233 249 205 200 185 171 142 181 242 235 177 179 187 223 231 221 185 154 139 136 195 232 186 223 211 221 223 321 327 322 315 309 316 322 328 328 327 325 316 323 318 322 326 333 316 308 315 317 318 320 320 318 322 320 323 322 315 311 306 304 302 300 296 296 296 293 291 290 288 283 280 263 253 255 261
185 192 183 210 211 197 197 215 224 201 243 249 230 244 201 143 124 108 208 251 216 171 185 176 201 203 157 127 140 149 169 211 200 195 207 182 179 228 187 357 348 344 335 330 319 303 307 313 334 333 337 335 326 324 328 332 333 327 320 318 321 324 324 323 323 316 314 311 310 308 305 300 297 292 289 289 291 290 282 283 288 281 271 264 251 263
184 185 194 205 208 216 217 243 291 285 262 223 216 165 153 160 137 182 207 230 179 189 170 150 142 145 138 135 152 114 186 165 153 152 137 160 79 34 343 321 279 282 299 315 308 320 325 316 314 304 304 305 304 310 317 325 327 315 311 312 320 313 308 307 308 309 305 306 304 303 300 296 286 287 288 277 279 286 286 280 278 281 275 272 268 258
197 180 212 202 214 216 215 230 236 279 232 182 262 149 174 122 212 209 226 211 154 176 175 146 130 147 126 108 98 107 133 105 46 45 40 30 77 247 245 263 303 316 289 274 286 306 312 314 308 307 308 302 306 307 309 309 307 301 307 310 301 293 294 297 295 295 297 297 298 297 296 293 291 277 276 284 281 284 285 279 265 267 273 271 267 267
182 186 187 198 196 212 201 234 224 229 268 130 132 60 271 161 229 157 136 43 59 144 137 171 134 169 127 115 131 125 111 71 68 74 56 306 3 329 324 326 330 319 325 331 327 316 320 318 315 309 307 311 314 317 316 321 311 309 310 306 302 306 305 299 299 299 300 300 299 298 296 295 292 291 288 283 280 276 280 285 282 270 265 265 269 264
177 198 184 215 183 209 204 214 217 213 142 207 165 198 194 200 183 151 125 102 164 136 145 135 187 175 154 119 131 116 136 115 75 107 84 350 275 304 304 300 299 312 308 292 281 297 318 306 297 299 304 309 308 303 295 293 295 296 297 297 301 308 309 309 308 307 305 303 300 300 299 298 295 289 285 281 283 280 276 281 279 273 264 254 256 263
217 203 179 202 180 194 208 214 183 125 144 257 110 211 187 122 126 200 133 143 147 186 177 116 154 149 158 133 130 147 116 118 144 167 141 213 223 260 280 300 322 317 318 317 321 320 320 309 308 306 302 302 306 306 309 314 311 310 309 307 315 310 310 309 309 308 304 302 300 298 296 298 295 294 292 286 274 279 282 280 278 278 271 243 249 252
325 197 87 101 261 58 27 131 159 59 83 65 52 67 80 64 22 85 108 110 50 113 107 121 114 110 115 138 119 92 102 130 116 50 321 300 278 271 283 311 338 329 323 324 322 329 321 314 303 300 301 303 302 305 306 308 311 308 305 312 315 312 312 311 312 312 308 305 303 301 301 301 299 296 290 285 273 262 264 272 280 275 277 265 251 253
258 174 124 160 265 152 244 148 107 133 60 93 106 53 56 48 38 56 84 74 95 88 80 61 87 83 82 72 84 113 91 99 69 17 352 346 343 338 342 339 344 350 338 333 333 333 330 331 323 319 319 314 319 318 308 310 309 298 302 308 312 313 307 306 306 304 301 299 301 302 303 301 300 301 302 296 286 266 265 264 264 266 269 264 259 256
279 184 165 206 175 172 238 99 45 37 47 16 56 114 86 65 64 58 77 94 97 79 73 72 77 67 63 65 59 61 9 358 26 355 352 338 328 328 329 334 332 331 330 325 324 328 321 318 314 311 313 310 315 320 312 309 310 314 312 309 314 315 312 306 303 301 299 298 299 295 296 297 294 295 294 295 294 291 288 272 247 254 257 260 251 247
202 120 204 187 179 197 45 84 130 76 44 26 29 41 87 121 111 86 79 87 85 84 73 55 58 67 63 58 47 48 31 343 39 5 336 318 320 330 335 331 329 325 323 327 322 323 312 310 312 309 309 306 313 314 312 311 313 317 313 311 314 315 311 306 302 299 296 297 300 296 297 293 289 288 291 292 290 280 265 271 277 262 260 253 244 233
101 186 205 106 120 166 178 187 173 119 216 214 237 153 113 106 116 115 101 79 69 76 66 81 63 58 61 49 51 51 77 2 6 346 323 316 315 326 332 331 326 323 321 318 312 311 309 311 310 309 306 304 315 315 313 311 313 312 306 309 310 307 301 299 299 297 295 297 298 298 301 301 297 294 291 288 288 292 290 263 243 248 259 270 252 233
174 191 145 164 176 213 223 186 170 103 84 120 157 159 152 154 135 120 114 112 88 74 64 101 118 83 58 39 38 47 30 15 355 351 338 333 333 331 338 340 333 329 327 328 327 325 325 319 319 315 310 309 313 306 301 300 303 302 299 299 302 307 310 310 304 298 295 296 295 297 299 297 296 296 293 290 289 289 288 296 288 252 245 252 260 254